sat.trackr.live / text

‹ back to catalog

STARLINK-30460

NORAD 57870 · 2023-144G

PAYLOAD ACTIVE UNKNOWN

§ Identity

Operator
Country
US
Launch date
2023-09-16
Launch site
AFETR
Launch vehicle
Mass (kg)
RCS (m²)

Purposes: comms

External: N2YO · Heavens-Above · Gunter

§ Orbital elements

Epoch: 2026-09-20T07:45:13.716288Z

Period
94.27 min
Inclination
43.0029°
Eccentricity
0.0001762
Mean motion
15.27560714 rev/d
Perigee alt
481.9 km
Apogee alt
484.3 km
Semi-major
6,861.2 km
B*
-5.7167e-5
RAAN
266.0528°
Arg perigee
304.6698°
Mean anomaly
55.3987°
Rev number
16,741

§ Raw data

STARLINK-304601 57870U 23144G   26263.32307542 -.00001834  00000+0 -57167-4 0  99932 57870  43.0029 266.0528 0001762 304.6698  55.3987 15.27560714167412

JSON: /api/v1/satellites/57870 · /tle

For live sub-satellite position, see the globe view (requires WebGL).

§ Visibility from observer

Set your observer location to see the next 7 days of passes ≥ 10°. The values pass through the URL so the page stays shareable.

No JS? Fill the form by hand. The geolocation button needs JavaScript.